Details From KHAE - Hannibal Rgnl
To KUIN - Quincy Rgnl Baldwin Fld
Flight Number -
Tags Decoded
Created
Modified
Stats Distance 17 nm / 32 km
Max Altitude 0 ft / 0 m
Waypoints 3
Social Downloads 2
Likes 0
Share VATSIM

Download

Looking for another format? Having issues loading an existing format? Contact us
Advertisement - Login to hide

Notes

Decoded

Route

KHAE UIN KUIN

ID Type Via Altitude Latitude Longitude Leg Dist Tot Dist Heading (true) Name
O KHAE APT - 0 ft / 0 m 39.73111˚ -91.44524˚ - 0 nm - -
UIN VOR - 0 ft / 0 m 39.84786˚ -91.27892˚ 10 nm 10 nm 48° / 48° QUINCY VORTAC
O KUIN APT - 0 ft / 0 m 39.94584˚ -91.20053˚ 6 nm 17 nm 32° / 32° -

Altitude Profile

Advertisement - Login to hide

KHAE

Details ICAO KHAE
Name HANNIBAL RGNL
Region United States
Timezone America/Chicago (UTC-5.0)
Stats Elevation 773 ft / 236 m (AMSL)
Location 39.725165° -91.443849°
Runways 1
Magnetic Variation 0.739° W

METAR

KHAE 212235Z AUTO 29004KT 10SM SCT033 SCT043 BKN050 26/16 A2997 RMK AO2

Decode

TAF

Not found

Departure Runways

ID Width Length Bearing (true) Bearing (mag) Surface Threshold Offset Overrun Length
17 100 ft / 30 m 4,407 ft / 1,343 m 169.80° 170.54° Concrete 0 ft / 0 m 0 ft / 0 m
35 100 ft / 30 m 4,407 ft / 1,343 m 349.80° 350.54° Concrete 0 ft / 0 m 0 ft / 0 m

KUIN

Details ICAO KUIN (UIN)
Name QUINCY RGNL BALDWIN FLD
Region United States
Timezone America/Chicago (UTC-5.0)
Stats Elevation 769 ft / 234 m (AMSL)
Location 39.942773° -91.194809°
Runways 3
Magnetic Variation 0.948° W

METAR

KUIN 212254Z AUTO 26007KT 10SM SCT042 BKN050 26/17 A2996 RMK AO2 SLP139 T02560172

Decode

TAF

KUIN 211906Z 2119/2218 24008KT P6SM SCT025 BKN035 TEMPO 2119/2121 BKN025 FM212100 26008KT P6SM BKN035 FM220300 VRB04KT P6SM SCT100 FM221200 35004KT P6SM SCT030

Decode

Destination Runways

ID Width Length Bearing (true) Bearing (mag) Surface Threshold Offset Overrun Length
04 151 ft / 46 m 7,037 ft / 2,145 m 40.00° 40.95° Asphalt 0 ft / 0 m 0 ft / 0 m
13 151 ft / 46 m 5,370 ft / 1,637 m 135.40° 136.35° Asphalt 0 ft / 0 m 0 ft / 0 m
18 151 ft / 46 m 5,845 ft / 1,782 m 179.00° 179.95° Concrete 0 ft / 0 m 0 ft / 0 m
22 151 ft / 46 m 7,037 ft / 2,145 m 220.01° 220.96° Asphalt 0 ft / 0 m 0 ft / 0 m
31 151 ft / 46 m 5,370 ft / 1,637 m 315.40° 316.35° Asphalt 0 ft / 0 m 0 ft / 0 m
36 151 ft / 46 m 5,845 ft / 1,782 m 359.00° 359.95° Concrete 476 ft / 145 m 0 ft / 0 m

Approach Navaids

Runway Type Ident Frequency Range Bearing (true) Bearing (mag) Slope Elevation
04 Localiser IUIN 110.10 MHz 18 nm / 33 km 40.26° 41.21° - 747 ft / 228 m (AMSL)
04 Glidescope IUIN 110.10 MHz 10 nm / 19 km 40.01° 40.95° 3.00° 759 ft / 231 m (AMSL)

Popular Alternatives